Station Historical Data
Daily Summary for March 15, 2017 Units:  English    Metric   Both
Next Day »
Daily Weekly Monthly Yearly Custom
  High: Low: Average:
Temperature: 67.4 °F 51.6 °F 57.6 °F
Dew Point: 56.0 °F 38.2 °F 46.4 °F
Humidity: 82% 53% 67%
Wind Speed: 18.0mph 0.0mph 3mph
Wind Gust: 20.0mph - -
Wind- - SSE
Pressure: 30.17 in 30.06 in -
Precipitation: 0.00 in    
Historical Graphs
 
 
Tabular Data for March 15, 2017
Time Temperature Dew Point Pressure Wind Wind Speed Wind Gust Humidity Rainfall Rate (Hourly) solar Conditions
00:04 56.5 °F 41.5 °F 30.10 in ESE 1.0 mph 13.0 mph 57% 0.00 in 0.00 W/m2
00:09 56.4 °F 41.8 °F 30.10 in ESE 2.0 mph 4.0 mph 58% 0.00 in 0.00 W/m2
00:14 56.3 °F 41.3 °F 30.10 in ESE 1.0 mph 12.0 mph 57% 0.00 in 0.00 W/m2
00:19 56.2 °F 41.6 °F 30.10 in ESE 11.0 mph 16.0 mph 58% 0.00 in 0.00 W/m2
00:24 56.2 °F 41.2 °F 30.10 in ESE 1.0 mph 15.0 mph 57% 0.00 in 0.00 W/m2
00:25 56.1 °F 41.1 °F 30.10 in East 6.0 mph 15.0 mph 57% 0.00 in 0.00 W/m2
00:30 56.1 °F 41.1 °F 30.10 in East 1.0 mph 15.0 mph 57% 0.00 in 0.00 W/m2
00:35 56.0 °F 40.5 °F 30.10 in East 1.0 mph 13.0 mph 56% 0.00 in 0.00 W/m2
00:40 56.0 °F 40.5 °F 30.10 in ESE 11.0 mph 13.0 mph 56% 0.00 in 0.00 W/m2
00:45 56.0 °F 41.0 °F 30.11 in Calm   13.0 mph 57% 0.00 in 0.00 W/m2
00:50 55.9 °F 40.9 °F 30.11 in Calm   13.0 mph 57% 0.00 in 0.00 W/m2
00:55 55.8 °F 41.3 °F 30.10 in ESE 8.0 mph 13.0 mph 58% 0.00 in 0.00 W/m2
01:00 55.8 °F 40.8 °F 30.10 in East 2.0 mph 16.0 mph 57% 0.00 in 0.00 W/m2
01:05 55.7 °F 40.7 °F 30.10 in ESE 4.0 mph 13.0 mph 57% 0.00 in 0.00 W/m2
01:10 55.7 °F 40.3 °F 30.10 in Calm   15.0 mph 56% 0.00 in 0.00 W/m2
01:15 55.7 °F 40.7 °F 30.10 in ESE 1.0 mph 9.0 mph 57% 0.00 in 0.00 W/m2
01:20 55.6 °F 40.2 °F 30.10 in East 5.0 mph 12.0 mph 56% 0.00 in 0.00 W/m2
01:25 55.6 °F 40.2 °F 30.10 in Calm   19.0 mph 56% 0.00 in 0.00 W/m2
01:30 55.6 °F 40.2 °F 30.10 in Calm   14.0 mph 56% 0.00 in 0.00 W/m2
01:35 55.6 °F 40.2 °F 30.10 in Calm   14.0 mph 56% 0.00 in 0.00 W/m2
01:40 55.6 °F 40.2 °F 30.10 in ESE 1.0 mph 18.0 mph 56% 0.00 in 0.00 W/m2
01:45 55.6 °F 40.2 °F 30.10 in SE 1.0 mph 15.0 mph 56% 0.00 in 0.00 W/m2
01:50 55.5 °F 39.6 °F 30.10 in Calm   18.0 mph 55% 0.00 in 0.00 W/m2
01:56 55.5 °F 39.6 °F 30.10 in ESE 9.0 mph 20.0 mph 55% 0.00 in 0.00 W/m2
02:00 55.5 °F 39.6 °F 30.10 in ESE 9.0 mph 18.0 mph 55% 0.00 in 0.00 W/m2
02:06 55.4 °F 40.0 °F 30.10 in East 13.0 mph 16.0 mph 56% 0.00 in 0.00 W/m2
02:10 55.4 °F 39.5 °F 30.10 in ENE 10.0 mph 18.0 mph 55% 0.00 in 0.00 W/m2
02:16 55.4 °F 40.0 °F 30.10 in ESE 9.0 mph 15.0 mph 56% 0.00 in 0.00 W/m2
02:20 55.3 °F 39.0 °F 30.10 in East 8.0 mph 18.0 mph 54% 0.00 in 0.00 W/m2
02:25 55.3 °F 39.0 °F 30.10 in ESE 12.0 mph 16.0 mph 54% 0.00 in 0.00 W/m2
02:30 55.3 °F 39.4 °F 30.10 in East 2.0 mph 13.0 mph 55% 0.00 in 0.00 W/m2
02:35 55.3 °F 39.0 °F 30.10 in Calm   15.0 mph 54% 0.00 in 0.00 W/m2
02:40 55.3 °F 39.4 °F 30.09 in East 1.0 mph 18.0 mph 55% 0.00 in 0.00 W/m2
02:45 55.2 °F 38.9 °F 30.09 in East 7.0 mph 14.0 mph 54% 0.00 in 0.00 W/m2
02:50 55.2 °F 39.3 °F 30.09 in ESE 2.0 mph 19.0 mph 55% 0.00 in 0.00 W/m2
02:56 55.2 °F 38.9 °F 30.09 in ESE 8.0 mph 18.0 mph 54% 0.00 in 0.00 W/m2
03:01 55.2 °F 38.9 °F 30.09 in Calm   15.0 mph 54% 0.00 in 0.00 W/m2
03:06 55.1 °F 38.3 °F 30.08 in East 18.0 mph 19.0 mph 53% 0.00 in 0.00 W/m2
03:11 55.1 °F 38.8 °F 30.08 in Calm   18.0 mph 54% 0.00 in 0.00 W/m2
03:16 55.1 °F 39.2 °F 30.08 in East 15.0 mph 15.0 mph 55% 0.00 in 0.00 W/m2
03:21 55.1 °F 39.7 °F 30.08 in ESE 6.0 mph 13.0 mph 56% 0.00 in 0.00 W/m2
03:26 55.0 °F 38.7 °F 30.08 in ESE 1.0 mph 16.0 mph 54% 0.00 in 0.00 W/m2
03:31 54.9 °F 39.0 °F 30.08 in Calm   14.0 mph 55% 0.00 in 0.00 W/m2
03:36 54.9 °F 38.6 °F 30.07 in East 2.0 mph 16.0 mph 54% 0.00 in 0.00 W/m2
03:41 54.8 °F 39.0 °F 30.07 in ESE 2.0 mph 15.0 mph 55% 0.00 in 0.00 W/m2
03:46 54.7 °F 38.9 °F 30.07 in ESE 7.0 mph 12.0 mph 55% 0.00 in 0.00 W/m2
03:51 54.7 °F 38.9 °F 30.07 in ESE 2.0 mph 15.0 mph 55% 0.00 in 0.00 W/m2
03:56 54.6 °F 38.8 °F 30.07 in East 1.0 mph 16.0 mph 55% 0.00 in 0.00 W/m2
04:01 54.5 °F 38.7 °F 30.07 in East 1.0 mph 14.0 mph 55% 0.00 in 0.00 W/m2
04:06 54.5 °F 38.2 °F 30.07 in Calm   14.0 mph 54% 0.00 in 0.00 W/m2
04:11 54.4 °F 39.5 °F 30.07 in ESE 4.0 mph 6.0 mph 57% 0.00 in 0.00 W/m2
04:16 54.3 °F 39.0 °F 30.06 in ESE 5.0 mph 9.0 mph 56% 0.00 in 0.00 W/m2
04:21 54.2 °F 38.4 °F 30.06 in SE 1.0 mph 1.0 mph 55% 0.00 in 0.00 W/m2
04:26 54.2 °F 38.9 °F 30.06 in East 1.0 mph 7.0 mph 56% 0.00 in 0.00 W/m2
04:31 54.1 °F 38.8 °F 30.06 in Calm   1.0 mph 56% 0.00 in 0.00 W/m2
04:36 54.0 °F 38.7 °F 30.06 in Calm   2.0 mph 56% 0.00 in 0.00 W/m2
04:41 53.9 °F 38.6 °F 30.06 in ESE 1.0 mph 1.0 mph 56% 0.00 in 0.00 W/m2
04:42 53.9 °F 38.6 °F 30.06 in SE 1.0 mph 2.0 mph 56% 0.00 in 0.00 W/m2
04:47 53.8 °F 38.9 °F 30.06 in ESE 1.0 mph 8.0 mph 57% 0.00 in 0.00 W/m2
04:52 53.7 °F 38.8 °F 30.06 in Calm   2.0 mph 57% 0.00 in 0.00 W/m2
04:57 53.6 °F 38.8 °F 30.06 in ESE 1.0 mph 2.0 mph 57% 0.00 in 0.00 W/m2
05:02 53.5 °F 39.5 °F 30.06 in East 1.0 mph 2.0 mph 59% 0.00 in 0.00 W/m2
05:07 53.3 °F 38.9 °F 30.06 in ESE 8.0 mph 13.0 mph 58% 0.00 in 0.00 W/m2
05:12 53.3 °F 39.3 °F 30.06 in ESE 1.0 mph 4.0 mph 59% 0.00 in 0.00 W/m2
05:17 53.2 °F 39.3 °F 30.07 in ESE 1.0 mph 1.0 mph 59% 0.00 in 0.00 W/m2
05:22 53.0 °F 39.1 °F 30.07 in Calm   1.0 mph 59% 0.00 in 0.00 W/m2
05:27 52.9 °F 39.4 °F 30.07 in SE 1.0 mph 1.0 mph 60% 0.00 in 0.00 W/m2
05:32 52.8 °F 39.3 °F 30.07 in ESE 1.0 mph 1.0 mph 60% 0.00 in 0.00 W/m2
05:37 52.6 °F 39.1 °F 30.07 in ESE 1.0 mph 1.0 mph 60% 0.00 in 0.00 W/m2
05:42 52.6 °F 39.5 °F 30.07 in ESE 2.0 mph 2.0 mph 61% 0.00 in 0.00 W/m2
05:47 52.4 °F 39.8 °F 30.07 in Calm   2.0 mph 62% 0.00 in 0.00 W/m2
05:52 52.3 °F 39.7 °F 30.07 in ESE 12.0 mph 12.0 mph 62% 0.00 in 0.00 W/m2
05:57 52.2 °F 39.6 °F 30.07 in Calm   1.0 mph 62% 0.00 in 0.00 W/m2
06:02 52.1 °F 39.9 °F 30.07 in ESE 1.0 mph 1.0 mph 63% 0.00 in 0.00 W/m2
06:03 52.1 °F 39.9 °F 30.07 in Calm   1.0 mph 63% 0.00 in 0.00 W/m2
06:08 52.0 °F 39.4 °F 30.07 in Calm   1.0 mph 62% 0.00 in 0.00 W/m2
06:13 52.0 °F 39.4 °F 30.07 in ESE 7.0 mph 9.0 mph 62% 0.00 in 0.00 W/m2
06:18 51.9 °F 39.7 °F 30.07 in Calm   2.0 mph 63% 0.00 in 0.00 W/m2
06:19 51.9 °F 39.3 °F 30.07 in ESE 1.0 mph 2.0 mph 62% 0.00 in 0.00 W/m2
06:24 51.9 °F 39.7 °F 30.07 in ESE 1.0 mph 1.0 mph 63% 0.00 in 0.00 W/m2
06:29 51.9 °F 40.1 °F 30.07 in Calm   14.0 mph 64% 0.00 in 0.00 W/m2
06:34 51.8 °F 39.6 °F 30.07 in Calm   11.0 mph 63% 0.00 in 0.00 W/m2
06:39 51.8 °F 40.0 °F 30.07 in ESE 6.0 mph 12.0 mph 64% 0.00 in 0.00 W/m2
06:44 51.7 °F 39.9 °F 30.07 in Calm   13.0 mph 64% 0.00 in 0.00 W/m2
06:49 51.7 °F 39.9 °F 30.07 in ESE 9.0 mph 11.0 mph 64% 0.00 in 0.00 W/m2
06:54 51.7 °F 39.9 °F 30.07 in ESE 9.0 mph 12.0 mph 64% 0.00 in 0.00 W/m2
06:59 51.6 °F 39.8 °F 30.08 in ESE 5.0 mph 12.0 mph 64% 0.00 in 0.00 W/m2
07:04 51.7 °F 39.9 °F 30.08 in East 7.0 mph 14.0 mph 64% 0.00 in 0.00 W/m2
07:09 51.7 °F 39.9 °F 30.08 in ESE 7.0 mph 18.0 mph 64% 0.00 in 7.00 W/m2
07:10 51.7 °F 39.9 °F 30.08 in Calm   18.0 mph 64% 0.00 in 9.00 W/m2
07:15 51.7 °F 39.9 °F 30.08 in ESE 7.0 mph 18.0 mph 64% 0.00 in 12.00 W/m2
07:20 51.8 °F 40.0 °F 30.08 in ESE 12.0 mph 15.0 mph 64% 0.00 in 12.00 W/m2
07:25 51.8 °F 40.0 °F 30.08 in East 8.0 mph 15.0 mph 64% 0.00 in 16.00 W/m2
07:30 51.8 °F 39.6 °F 30.08 in Calm   13.0 mph 63% 0.00 in 23.00 W/m2
07:35 51.9 °F 40.1 °F 30.08 in Calm   14.0 mph 64% 0.00 in 28.00 W/m2
07:40 52.0 °F 40.2 °F 30.09 in ESE 1.0 mph 16.0 mph 64% 0.00 in 30.00 W/m2
07:45 52.0 °F 40.2 °F 30.09 in East 4.0 mph 12.0 mph 64% 0.00 in 33.00 W/m2
07:50 52.1 °F 39.9 °F 30.09 in Calm   12.0 mph 63% 0.00 in 33.00 W/m2
07:55 52.1 °F 40.3 °F 30.09 in ESE 4.0 mph 14.0 mph 64% 0.00 in 32.00 W/m2
08:00 52.2 °F 40.8 °F 30.10 in Calm   16.0 mph 65% 0.00 in 30.00 W/m2
08:05 52.1 °F 40.7 °F 30.10 in Calm   9.0 mph 65% 0.00 in 32.00 W/m2
08:10 52.2 °F 41.2 °F 30.10 in Calm   2.0 mph 66% 0.00 in 76.00 W/m2
08:15 52.1 °F 41.1 °F 30.10 in Calm   8.0 mph 66% 0.00 in 53.00 W/m2
08:20 52.1 °F 41.5 °F 30.10 in Calm   2.0 mph 67% 0.00 in 72.00 W/m2
08:25 52.1 °F 41.5 °F 30.10 in Calm   12.0 mph 67% 0.00 in 158.00 W/m2
08:30 52.0 °F 41.4 °F 30.11 in Calm   13.0 mph 67% 0.00 in 178.00 W/m2
08:35 52.1 °F 41.5 °F 30.11 in SE 1.0 mph 5.0 mph 67% 0.00 in 197.00 W/m2
08:40 52.2 °F 41.6 °F 30.11 in ESE 2.0 mph 10.0 mph 67% 0.00 in 220.00 W/m2
08:45 52.3 °F 42.1 °F 30.10 in SE 1.0 mph 6.0 mph 68% 0.00 in 241.00 W/m2
08:50 52.6 °F 42.3 °F 30.10 in SE 4.0 mph 6.0 mph 68% 0.00 in 264.00 W/m2
08:55 52.8 °F 42.2 °F 30.11 in ESE 1.0 mph 10.0 mph 67% 0.00 in 292.00 W/m2
09:00 53.1 °F 42.1 °F 30.11 in SE 6.0 mph 7.0 mph 66% 0.00 in 304.00 W/m2
09:05 53.5 °F 42.8 °F 30.11 in SE 4.0 mph 5.0 mph 67% 0.00 in 316.00 W/m2
09:10 53.7 °F 43.0 °F 30.11 in ESE 1.0 mph 6.0 mph 67% 0.00 in 329.00 W/m2
09:15 54.1 °F 43.4 °F 30.11 in SE 4.0 mph 6.0 mph 67% 0.00 in 336.00 W/m2
09:20 54.4 °F 43.7 °F 30.11 in SE 1.0 mph 8.0 mph 67% 0.00 in 346.00 W/m2
09:25 54.7 °F 44.0 °F 30.12 in Calm   5.0 mph 67% 0.00 in 364.00 W/m2
09:30 55.0 °F 44.3 °F 30.11 in SE 4.0 mph 8.0 mph 67% 0.00 in 376.00 W/m2
09:35 55.2 °F 42.8 °F 30.12 in SSE 1.0 mph 7.0 mph 63% 0.00 in 410.00 W/m2
09:40 55.6 °F 43.6 °F 30.12 in SE 1.0 mph 6.0 mph 64% 0.00 in 429.00 W/m2
09:45 55.9 °F 43.9 °F 30.12 in SSE 2.0 mph 10.0 mph 64% 0.00 in 461.00 W/m2
09:50 56.3 °F 44.7 °F 30.11 in SE 6.0 mph 10.0 mph 65% 0.00 in 466.00 W/m2
09:55 56.8 °F 43.9 °F 30.11 in South 6.0 mph 9.0 mph 62% 0.00 in 482.00 W/m2
10:00 57.3 °F 44.8 °F 30.11 in Calm   10.0 mph 63% 0.00 in 519.00 W/m2
10:05 57.8 °F 44.9 °F 30.12 in South 1.0 mph 13.0 mph 62% 0.00 in 540.00 W/m2
10:10 58.2 °F 44.8 °F 30.12 in Calm   11.0 mph 61% 0.00 in 554.00 W/m2
10:15 58.6 °F 45.2 °F 30.12 in SE 2.0 mph 12.0 mph 61% 0.00 in 554.00 W/m2
10:21 59.1 °F 46.5 °F 30.11 in SSE 10.0 mph 15.0 mph 63% 0.00 in 582.00 W/m2
10:26 59.6 °F 47.0 °F 30.11 in SSE 2.0 mph 15.0 mph 63% 0.00 in 566.00 W/m2
10:31 60.1 °F 47.9 °F 30.11 in South 10.0 mph 16.0 mph 64% 0.00 in 211.00 W/m2
10:36 60.4 °F 49.0 °F 30.11 in Calm   18.0 mph 66% 0.00 in 552.00 W/m2
10:41 60.7 °F 49.3 °F 30.11 in South 12.0 mph 12.0 mph 66% 0.00 in 654.00 W/m2
10:46 60.9 °F 49.1 °F 30.11 in Calm   15.0 mph 65% 0.00 in 466.00 W/m2
10:51 61.2 °F 49.3 °F 30.11 in South 5.0 mph 14.0 mph 65% 0.00 in 635.00 W/m2
10:56 61.5 °F 49.6 °F 30.11 in South 7.0 mph 12.0 mph 65% 0.00 in 612.00 W/m2
11:01 61.8 °F 50.7 °F 30.11 in SSE 6.0 mph 14.0 mph 67% 0.00 in 656.00 W/m2
11:06 62.0 °F 50.5 °F 30.11 in South 8.0 mph 16.0 mph 66% 0.00 in 668.00 W/m2
11:11 62.3 °F 51.6 °F 30.10 in SSW 6.0 mph 17.0 mph 68% 0.00 in 659.00 W/m2
11:16 62.6 °F 51.9 °F 30.11 in SSW 12.0 mph 14.0 mph 68% 0.00 in 684.00 W/m2
11:21 63.0 °F 52.3 °F 30.10 in SSE 2.0 mph 14.0 mph 68% 0.00 in 694.00 W/m2
11:26 63.3 °F 52.6 °F 30.10 in SSE 13.0 mph 13.0 mph 68% 0.00 in 689.00 W/m2
11:31 63.7 °F 52.1 °F 30.11 in SSE 6.0 mph 20.0 mph 66% 0.00 in 710.00 W/m2
11:36 64.1 °F 51.7 °F 30.10 in South 7.0 mph 15.0 mph 64% 0.00 in 835.00 W/m2
11:41 64.5 °F 52.5 °F 30.10 in South 3.0 mph 17.0 mph 65% 0.00 in 930.00 W/m2
11:46 65.0 °F 52.5 °F 30.11 in SSE 10.0 mph 19.0 mph 64% 0.00 in 605.00 W/m2
11:51 65.4 °F 52.5 °F 30.11 in SSW 9.0 mph 16.0 mph 63% 0.00 in 489.00 W/m2
11:56 65.6 °F 52.7 °F 30.11 in Calm   15.0 mph 63% 0.00 in 408.00 W/m2
12:01 65.8 °F 52.9 °F 30.11 in SSW 2.0 mph 14.0 mph 63% 0.00 in 438.00 W/m2
12:06 65.9 °F 53.4 °F 30.11 in SSW 1.0 mph 14.0 mph 64% 0.00 in 580.00 W/m2
12:11 66.0 °F 53.5 °F 30.11 in Calm   19.0 mph 64% 0.00 in 510.00 W/m2
12:16 66.1 °F 54.0 °F 30.10 in Calm   17.0 mph 65% 0.00 in 483.00 W/m2
12:21 66.1 °F 54.0 °F 30.10 in South 8.0 mph 14.0 mph 65% 0.00 in 404.00 W/m2
12:26 66.0 °F 54.3 °F 30.11 in SSW 9.0 mph 16.0 mph 66% 0.00 in 345.00 W/m2
12:31 65.9 °F 54.2 °F 30.10 in SSE 8.0 mph 14.0 mph 66% 0.00 in 413.00 W/m2
12:32 65.9 °F 54.2 °F 30.10 in SSW 15.0 mph 15.0 mph 66% 0.00 in 431.00 W/m2
12:37 65.7 °F 54.5 °F 30.10 in SSE 7.0 mph 11.0 mph 67% 0.00 in 445.00 W/m2
12:42 65.6 °F 54.0 °F 30.10 in South 13.0 mph 16.0 mph 66% 0.00 in 422.00 W/m2
12:47 65.6 °F 54.0 °F 30.10 in South 11.0 mph 11.0 mph 66% 0.00 in 431.00 W/m2
12:52 65.5 °F 54.3 °F 30.10 in Calm   11.0 mph 67% 0.00 in 499.00 W/m2
12:57 65.5 °F 53.8 °F 30.10 in South 5.0 mph 14.0 mph 66% 0.00 in 427.00 W/m2
13:02 65.5 °F 54.3 °F 30.09 in Calm   6.0 mph 67% 0.00 in 563.00 W/m2
13:07 65.6 °F 54.8 °F 30.09 in SSW 15.0 mph 17.0 mph 68% 0.00 in 499.00 W/m2
13:12 65.8 °F 55.0 °F 30.10 in SSW 7.0 mph 9.0 mph 68% 0.00 in 519.00 W/m2
13:17 65.9 °F 55.5 °F 30.09 in South 10.0 mph 12.0 mph 69% 0.00 in 480.00 W/m2
13:22 66.0 °F 55.5 °F 30.09 in SSW 9.0 mph 17.0 mph 69% 0.00 in 807.00 W/m2
13:27 66.1 °F 55.7 °F 30.09 in SW 6.0 mph 14.0 mph 69% 0.00 in 659.00 W/m2
13:32 66.3 °F 55.4 °F 30.09 in South 14.0 mph 20.0 mph 68% 0.00 in 469.00 W/m2
13:37 66.4 °F 54.7 °F 30.09 in SSW 8.0 mph 8.0 mph 66% 0.00 in 664.00 W/m2
13:42 66.7 °F 55.4 °F 30.09 in SW 5.0 mph 15.0 mph 67% 0.00 in 847.00 W/m2
13:47 66.9 °F 56.0 °F 30.09 in South 8.0 mph 10.0 mph 68% 0.00 in 759.00 W/m2
13:52 67.2 °F 55.5 °F 30.10 in South 15.0 mph 15.0 mph 66% 0.00 in 508.00 W/m2
13:57 67.4 °F 53.9 °F 30.09 in WSW 2.0 mph 4.0 mph 62% 0.00 in 603.00 W/m2
14:02 67.4 °F 53.0 °F 30.09 in SW 10.0 mph 11.0 mph 60% 0.00 in 434.00 W/m2
14:07 67.3 °F 54.3 °F 30.09 in Calm     63% 0.00 in 534.00 W/m2
14:12 67.1 °F 55.0 °F 30.09 in WSW 6.0 mph 9.0 mph 65% 0.00 in 596.00 W/m2
14:17 67.0 °F 54.4 °F 30.09 in SSE 2.0 mph 12.0 mph 64% 0.00 in 682.00 W/m2
14:22 67.1 °F 52.3 °F 30.09 in SSW 7.0 mph 15.0 mph 59% 0.00 in 779.00 W/m2
14:27 67.3 °F 52.0 °F 30.09 in SSE 7.0 mph 9.0 mph 58% 0.00 in 359.00 W/m2
14:32 67.3 °F 52.0 °F 30.09 in Calm   9.0 mph 58% 0.00 in 434.00 W/m2
14:37 67.3 °F 52.5 °F 30.09 in SW 10.0 mph 11.0 mph 59% 0.00 in 308.00 W/m2
14:38 67.3 °F 53.0 °F 30.09 in South 6.0 mph 11.0 mph 60% 0.00 in 308.00 W/m2
14:43 67.2 °F 52.9 °F 30.09 in Calm   12.0 mph 60% 0.00 in 404.00 W/m2
14:48 67.1 °F 54.5 °F 30.09 in Calm   9.0 mph 64% 0.00 in 378.00 W/m2
14:53 66.8 °F 55.1 °F 30.09 in SW 9.0 mph 9.0 mph 66% 0.00 in 394.00 W/m2
14:58 66.5 °F 54.8 °F 30.09 in WSW 10.0 mph 11.0 mph 66% 0.00 in 373.00 W/m2
15:03 65.8 °F 54.1 °F 30.09 in WNW 4.0 mph 12.0 mph 66% 0.00 in 584.00 W/m2
15:09 65.3 °F 54.5 °F 30.10 in SW 11.0 mph 14.0 mph 68% 0.00 in 392.00 W/m2
15:14 64.9 °F 54.1 °F 30.10 in WSW 9.0 mph 14.0 mph 68% 0.00 in 432.00 W/m2
15:19 64.7 °F 54.3 °F 30.10 in WSW 7.0 mph 16.0 mph 69% 0.00 in 323.00 W/m2
15:24 64.5 °F 53.7 °F 30.10 in SSE 6.0 mph 12.0 mph 68% 0.00 in 276.00 W/m2
15:29 64.2 °F 53.4 °F 30.11 in SSW 5.0 mph 11.0 mph 68% 0.00 in 278.00 W/m2
15:34 63.9 °F 53.1 °F 30.11 in SW 3.0 mph 10.0 mph 68% 0.00 in 188.00 W/m2
15:39 63.8 °F 53.0 °F 30.11 in Calm   5.0 mph 68% 0.00 in 139.00 W/m2
15:44 63.4 °F 52.7 °F 30.12 in West 4.0 mph 7.0 mph 68% 0.00 in 141.00 W/m2
15:49 63.0 °F 51.9 °F 30.12 in Calm   1.0 mph 67% 0.00 in 148.00 W/m2
15:54 62.6 °F 51.5 °F 30.11 in Calm     67% 0.00 in 169.00 W/m2
15:59 62.3 °F 51.2 °F 30.11 in Calm     67% 0.00 in 156.00 W/m2
16:04 62.2 °F 51.9 °F 30.11 in Calm   1.0 mph 69% 0.00 in 118.00 W/m2
16:09 62.1 °F 51.8 °F 30.11 in Calm     69% 0.00 in 95.00 W/m2
16:14 62.0 °F 51.7 °F 30.11 in Calm     69% 0.00 in 81.00 W/m2
16:19 61.9 °F 51.2 °F 30.11 in Calm     68% 0.00 in 54.00 W/m2
16:24 61.8 °F 51.5 °F 30.10 in Calm     69% 0.00 in 70.00 W/m2
16:29 61.7 °F 51.8 °F 30.10 in Calm     70% 0.00 in 118.00 W/m2
16:34 61.6 °F 51.7 °F 30.10 in Calm     70% 0.00 in 123.00 W/m2
16:39 61.5 °F 51.6 °F 30.11 in Calm     70% 0.00 in 104.00 W/m2
16:44 61.3 °F 52.2 °F 30.11 in Calm   4.0 mph 72% 0.00 in 77.00 W/m2
16:49 61.0 °F 51.2 °F 30.12 in Calm     70% 0.00 in 86.00 W/m2
16:54 60.9 °F 51.5 °F 30.12 in Calm     71% 0.00 in 86.00 W/m2
16:59 60.8 °F 51.7 °F 30.12 in Calm     72% 0.00 in 70.00 W/m2
17:04 60.6 °F 51.2 °F 30.11 in Calm     71% 0.00 in 79.00 W/m2
17:09 60.5 °F 51.1 °F 30.12 in Calm     71% 0.00 in 93.00 W/m2
17:14 60.5 °F 51.4 °F 30.12 in Calm     72% 0.00 in 79.00 W/m2
17:19 60.4 °F 51.0 °F 30.12 in Calm     71% 0.00 in 81.00 W/m2
17:24 60.3 °F 50.5 °F 30.12 in Calm     70% 0.00 in 67.00 W/m2
17:29 60.2 °F 51.2 °F 30.12 in Calm     72% 0.00 in 49.00 W/m2
17:34 60.0 °F 51.3 °F 30.12 in Calm   4.0 mph 73% 0.00 in 39.00 W/m2
17:39 60.0 °F 51.0 °F 30.12 in SSE 2.0 mph 4.0 mph 72% 0.00 in 32.00 W/m2
17:44 59.8 °F 50.8 °F 30.12 in SE 1.0 mph 5.0 mph 72% 0.00 in 30.00 W/m2
17:49 59.7 °F 50.7 °F 30.12 in Calm   4.0 mph 72% 0.00 in 25.00 W/m2
17:55 59.5 °F 50.8 °F 30.12 in Calm     73% 0.00 in 28.00 W/m2
18:00 59.3 °F 50.7 °F 30.12 in Calm     73% 0.00 in 28.00 W/m2
18:05 59.3 °F 50.7 °F 30.13 in Calm     73% 0.00 in 49.00 W/m2
18:10 59.2 °F 51.3 °F 30.13 in Calm   5.0 mph 75% 0.00 in 40.00 W/m2
18:15 59.1 °F 51.2 °F 30.14 in Calm     75% 0.00 in 25.00 W/m2
18:20 58.9 °F 51.0 °F 30.13 in Calm     75% 0.00 in 26.00 W/m2
18:25 58.8 °F 51.6 °F 30.14 in Calm     77% 0.00 in 32.00 W/m2
18:30 58.6 °F 51.4 °F 30.14 in Calm     77% 0.00 in 26.00 W/m2
18:35 58.6 °F 51.4 °F 30.14 in Calm     77% 0.00 in 25.00 W/m2
18:40 58.5 °F 51.3 °F 30.14 in Calm     77% 0.00 in 16.00 W/m2
18:45 58.3 °F 51.5 °F 30.13 in Calm     78% 0.00 in 11.00 W/m2
18:50 58.2 °F 52.1 °F 30.12 in Calm     80% 0.00 in 11.00 W/m2
18:55 57.8 °F 52.0 °F 30.12 in Calm     81% 0.00 in 11.00 W/m2
19:00 57.5 °F 51.7 °F 30.12 in SSE 6.0 mph 6.0 mph 81% 0.00 in 7.00 W/m2
19:05 57.4 °F 52.0 °F 30.12 in SSE 6.0 mph 8.0 mph 82% 0.00 in 0.00 W/m2
19:10 57.2 °F 51.4 °F 30.11 in Calm   9.0 mph 81% 0.00 in 0.00 W/m2
19:15 57.0 °F 51.2 °F 30.12 in Calm   4.0 mph 81% 0.00 in 0.00 W/m2
19:20 56.8 °F 51.0 °F 30.11 in SE 2.0 mph 6.0 mph 81% 0.00 in 0.00 W/m2
19:25 56.7 °F 50.6 °F 30.11 in SE 2.0 mph 8.0 mph 80% 0.00 in 0.00 W/m2
19:30 56.7 °F 50.9 °F 30.11 in SSE 6.0 mph 9.0 mph 81% 0.00 in 0.00 W/m2
19:35 56.6 °F 50.5 °F 30.11 in SSE 5.0 mph 9.0 mph 80% 0.00 in 0.00 W/m2
19:40 56.6 °F 50.5 °F 30.11 in SE 1.0 mph 9.0 mph 80% 0.00 in 0.00 W/m2
19:45 56.6 °F 50.2 °F 30.12 in Calm   6.0 mph 79% 0.00 in 0.00 W/m2
19:50 56.6 °F 49.8 °F 30.12 in SSE 1.0 mph 6.0 mph 78% 0.00 in 0.00 W/m2
19:55 56.6 °F 49.5 °F 30.12 in Calm   6.0 mph 77% 0.00 in 0.00 W/m2
20:00 56.6 °F 49.5 °F 30.12 in SSE 5.0 mph 5.0 mph 77% 0.00 in 0.00 W/m2
20:06 56.6 °F 48.8 °F 30.12 in Calm   6.0 mph 75% 0.00 in 0.00 W/m2
20:11 56.6 °F 48.8 °F 30.14 in Calm   5.0 mph 75% 0.00 in 0.00 W/m2
20:16 56.6 °F 48.8 °F 30.14 in Calm   7.0 mph 75% 0.00 in 0.00 W/m2
20:20 56.5 °F 49.0 °F 30.15 in Calm   4.0 mph 76% 0.00 in 0.00 W/m2
20:26 56.5 °F 48.7 °F 30.14 in Calm   3.0 mph 75% 0.00 in 0.00 W/m2
20:31 56.4 °F 48.6 °F 30.15 in Calm   4.0 mph 75% 0.00 in 0.00 W/m2
20:36 56.4 °F 48.6 °F 30.14 in Calm     75% 0.00 in 0.00 W/m2
20:41 56.3 °F 48.5 °F 30.14 in Calm   5.0 mph 75% 0.00 in 0.00 W/m2
20:46 56.2 °F 48.8 °F 30.15 in Calm   3.0 mph 76% 0.00 in 0.00 W/m2
20:51 56.2 °F 48.8 °F 30.15 in Calm   4.0 mph 76% 0.00 in 0.00 W/m2
20:56 56.1 °F 48.7 °F 30.15 in Calm   4.0 mph 76% 0.00 in 0.00 W/m2
21:01 55.9 °F 48.5 °F 30.15 in Calm     76% 0.00 in 0.00 W/m2
21:06 55.9 °F 48.8 °F 30.15 in South 2.0 mph 4.0 mph 77% 0.00 in 0.00 W/m2
21:11 55.7 °F 49.0 °F 30.15 in South 5.0 mph 5.0 mph 78% 0.00 in 0.00 W/m2
21:16 55.6 °F 48.9 °F 30.15 in Calm   4.0 mph 78% 0.00 in 0.00 W/m2
21:21 55.5 °F 48.8 °F 30.15 in Calm   5.0 mph 78% 0.00 in 0.00 W/m2
21:26 55.5 °F 49.1 °F 30.16 in Calm     79% 0.00 in 0.00 W/m2
21:31 55.4 °F 49.0 °F 30.16 in Calm     79% 0.00 in 0.00 W/m2
21:36 55.3 °F 48.9 °F 30.16 in Calm     79% 0.00 in 0.00 W/m2
21:41 55.2 °F 48.8 °F 30.16 in Calm     79% 0.00 in 0.00 W/m2
21:46 55.1 °F 48.7 °F 30.17 in Calm     79% 0.00 in 0.00 W/m2
21:51 55.0 °F 48.6 °F 30.17 in Calm     79% 0.00 in 0.00 W/m2
21:56 54.8 °F 48.4 °F 30.16 in Calm     79% 0.00 in 0.00 W/m2
22:01 54.6 °F 48.6 °F 30.16 in SSE 5.0 mph 5.0 mph 80% 0.00 in 0.00 W/m2
22:06 54.4 °F 48.4 °F 30.16 in SSE 5.0 mph 5.0 mph 80% 0.00 in 0.00 W/m2
22:11 54.3 °F 48.3 °F 30.16 in Calm     80% 0.00 in 0.00 W/m2
22:16 54.2 °F 48.2 °F 30.16 in SE 2.0 mph 2.0 mph 80% 0.00 in 0.00 W/m2
22:21 54.1 °F 48.1 °F 30.16 in SE 5.0 mph 6.0 mph 80% 0.00 in 0.00 W/m2
22:26 54.1 °F 48.1 °F 30.16 in SE 4.0 mph 4.0 mph 80% 0.00 in 0.00 W/m2
22:31 54.0 °F 47.6 °F 30.16 in SE 1.0 mph 5.0 mph 79% 0.00 in 0.00 W/m2
22:41 54.0 °F 47.6 °F 30.16 in Calm   1.0 mph 79% 0.00 in 0.00 W/m2
22:46 54.0 °F 47.6 °F 30.16 in SE 2.0 mph 4.0 mph 79% 0.00 in 0.00 W/m2
22:51 53.9 °F 47.9 °F 30.16 in Calm     80% 0.00 in 0.00 W/m2
22:56 53.9 °F 47.9 °F 30.16 in Calm   2.0 mph 80% 0.00 in 0.00 W/m2
23:01 53.8 °F 47.8 °F 30.16 in Calm     80% 0.00 in 0.00 W/m2
23:06 53.8 °F 47.8 °F 30.16 in Calm     80% 0.00 in 0.00 W/m2
23:11 53.7 °F 47.7 °F 30.16 in Calm     80% 0.00 in 0.00 W/m2
23:16 53.7 °F 47.7 °F 30.17 in Calm     80% 0.00 in 0.00 W/m2
23:21 53.6 °F 47.6 °F 30.17 in Calm     80% 0.00 in 0.00 W/m2
23:26 53.6 °F 47.9 °F 30.17 in Calm     81% 0.00 in 0.00 W/m2
23:31 53.5 °F 47.5 °F 30.17 in Calm     80% 0.00 in 0.00 W/m2
23:33 53.5 °F 47.5 °F 30.17 in Calm     80% 0.00 in 0.00 W/m2
23:38 53.5 °F 47.8 °F 30.17 in Calm     81% 0.00 in 0.00 W/m2
23:43 53.5 °F 47.5 °F 30.17 in Calm   5.0 mph 80% 0.00 in 0.00 W/m2
23:48 53.4 °F 47.4 °F 30.17 in SE 1.0 mph 4.0 mph 80% 0.00 in 0.00 W/m2
23:53 53.4 °F 47.4 °F 30.17 in Calm   4.0 mph 80% 0.00 in 0.00 W/m2
23:58 53.4 °F 47.4 °F 30.17 in Calm   7.0 mph 80% 0.00 in 0.00 W/m2
Foresthill Weather
 WU-history PHP script courtesy of   Juneau County Weather.
powered by Cumulus v1.9.3 (1059)
Ambient Weather VWS v14.00
Top Contact Website Map Copyright © 2007 - 2018 Foresthillweather.com Never base important decisions on this or any weather information obtained from the Internet